• In Belarus
  • List of Countries
  • For 7 days
  • Water Temperature
  • Satellite Maps
  • Weather Map
  • Weather Widgets
  • user-avatar
    Login

    Hourly Weather Silistra

    Today, 20 November, Monday

    Time Temperature Precipitation Wind Pressure Humidity
    00:00 +7°C° 0.1 mm 2 mps 753 mmHg 80%
    01:00 +7°C° 0.1 mm 2 mps 753 mmHg 79%
    02:00 +7°C° 0 mm 3 mps 752 mmHg 79%
    03:00 +7°C° 0.4 mm 3 mps 753 mmHg 79%
    04:00 +7°C° 0.4 mm 3 mps 753 mmHg 80%
    05:00 +7°C° 0.4 mm 3 mps 753 mmHg 80%
    06:00 +5°C° 0.7 mm 3 mps 753 mmHg 80%
    07:00 +5°C° 0.7 mm 4 mps 753 mmHg 79%
    08:00 +4°C° 0 mm 4 mps 753 mmHg 77%
    09:00 +5°C° 0.4 mm 5 mps 753 mmHg 73%
    10:00 +5°C° 0.4 mm 5 mps 753 mmHg 69%
    11:00 +6°C° 0.4 mm 5 mps 753 mmHg 64%
    12:00 +6°C° 0.2 mm 5 mps 753 mmHg 63%
    13:00 +6°C° 0.2 mm 5 mps 753 mmHg 62%
    14:00 +6°C° 0.2 mm 5 mps 753 mmHg 61%
    15:00 +6°C° 0.1 mm 5 mps 753 mmHg 62%
    16:00 +6°C° 0.1 mm 4 mps 753 mmHg 64%
    17:00 +7°C° 0.1 mm 3 mps 753 mmHg 65%
    18:00 +6°C° 0 mm 4 mps 754 mmHg 63%
    19:00 +5°C° 0 mm 4 mps 754 mmHg 61%
    20:00 +5°C° 0 mm 4 mps 754 mmHg 59%
    21:00 +5°C° 0 mm 4 mps 755 mmHg 59%
    22:00 +4°C° 0 mm 4 mps 755 mmHg 59%
    23:00 +4°C° 0 mm 4 mps 756 mmHg 59%

    Tomorrow, 21 November, Tuesday

    Time Temperature Precipitation Wind Pressure Humidity
    00:00 +4°C° 0 mm 4 mps 756 mmHg 60%
    01:00 +3°C° 0 mm 3 mps 756 mmHg 62%
    02:00 +3°C° 0 mm 3 mps 757 mmHg 63%
    03:00 +3°C° 0 mm 3 mps 757 mmHg 65%
    04:00 +3°C° 0 mm 3 mps 757 mmHg 67%
    05:00 +2°C° 0 mm 3 mps 757 mmHg 69%
    06:00 +2°C° 0 mm 3 mps 758 mmHg 71%
    07:00 +2°C° 0 mm 3 mps 758 mmHg 72%
    08:00 +2°C° 0 mm 3 mps 758 mmHg 74%
    09:00 +3°C° 0 mm 3 mps 758 mmHg 68%
    10:00 +4°C° 0 mm 4 mps 759 mmHg 63%
    11:00 +5°C° 0 mm 4 mps 759 mmHg 57%
    12:00 +6°C° 0 mm 4 mps 758 mmHg 54%
    13:00 +7°C° 0 mm 5 mps 758 mmHg 51%
    14:00 +7°C° 0 mm 5 mps 757 mmHg 47%
    15:00 +7°C° 0 mm 4 mps 757 mmHg 50%
    16:00 +7°C° 0 mm 3 mps 757 mmHg 53%
    17:00 +6°C° 0 mm 2 mps 757 mmHg 56%
    18:00 +5°C° 0 mm 3 mps 757 mmHg 58%
    19:00 +5°C° 0 mm 3 mps 758 mmHg 60%
    20:00 +5°C° 0 mm 3 mps 758 mmHg 62%
    21:00 +5°C° 0 mm 3 mps 758 mmHg 63%
    22:00 +5°C° 0 mm 3 mps 758 mmHg 64%
    23:00 +4°C° 0 mm 3 mps 758 mmHg 65%

    Day after tomorrow, 22 November, Wednesday

    Time Temperature Precipitation Wind Pressure Humidity
    00:00 +5°C° 0 mm 2 mps 758 mmHg 66%
    01:00 +5°C° 0 mm 2 mps 758 mmHg 67%
    02:00 +5°C° 0 mm 2 mps 758 mmHg 68%
    03:00 +5°C° 0 mm 2 mps 758 mmHg 70%
    04:00 +5°C° 0 mm 2 mps 757 mmHg 72%
    05:00 +6°C° 0 mm 1 mps 757 mmHg 74%
    06:00 +6°C° 0 mm 1 mps 758 mmHg 74%
    07:00 +6°C° 0 mm 1 mps 758 mmHg 74%
    08:00 +6°C° 0 mm 1 mps 758 mmHg 75%
    09:00 +7°C° 0 mm 1 mps 758 mmHg 70%
    10:00 +8°C° 0 mm 1 mps 758 mmHg 65%
    11:00 +8°C° 0 mm 2 mps 759 mmHg 61%
    12:00 +8°C° 0 mm 2 mps 759 mmHg 58%
    13:00 +9°C° 0 mm 2 mps 758 mmHg 56%
    14:00 +10°C° 0 mm 2 mps 758 mmHg 53%
    15:00 +10°C° 0 mm 1 mps 758 mmHg 56%
    16:00 +10°C° 0 mm 1 mps 759 mmHg 59%
    17:00 +8°C° 0 mm 0 mps 759 mmHg 62%
    18:00 +8°C° 0 mm 0 mps 759 mmHg 64%
    19:00 +9°C° 0 mm 1 mps 759 mmHg 65%
    20:00 +8°C° 0 mm 1 mps 759 mmHg 67%
    21:00 +8°C° 0 mm 1 mps 759 mmHg 70%
    22:00 +8°C° 0 mm 1 mps 759 mmHg 72%
    23:00 +8°C° 0 mm 1 mps 759 mmHg 74%

    23 November, Thursday

    Time Temperature Precipitation Wind Pressure Humidity
    00:00 +7°C° 0 mm 1 mps 759 mmHg 76%
    01:00 +7°C° 0 mm 1 mps 759 mmHg 78%
    02:00 +7°C° 0 mm 1 mps 759 mmHg 79%
    03:00 +7°C° 0 mm 1 mps 759 mmHg 81%
    04:00 +7°C° 0 mm 1 mps 759 mmHg 83%
    05:00 +7°C° 0 mm 1 mps 759 mmHg 84%
    06:00 +7°C° 0 mm 1 mps 759 mmHg 85%
    07:00 +6°C° 0 mm 1 mps 760 mmHg 85%
    08:00 +6°C° 0 mm 1 mps 760 mmHg 85%
    09:00 +8°C° 0 mm 1 mps 760 mmHg 79%
    10:00 +9°C° 0 mm 1 mps 760 mmHg 72%
    11:00 +11°C° 0 mm 1 mps 760 mmHg 66%
    12:00 +11°C° 0 mm 1 mps 760 mmHg 63%
    13:00 +12°C° 0 mm 1 mps 760 mmHg 60%
    14:00 +13°C° 0 mm 1 mps 760 mmHg 57%
    15:00 +12°C° 0 mm 1 mps 761 mmHg 61%
    16:00 +11°C° 0 mm 1 mps 761 mmHg 64%
    17:00 +10°C° 0 mm 1 mps 761 mmHg 68%
    18:00 +10°C° 0 mm 1 mps 762 mmHg 71%
    19:00 +9°C° 0 mm 1 mps 762 mmHg 74%
    20:00 +9°C° 0 mm 1 mps 762 mmHg 77%
    21:00 +8°C° 0 mm 1 mps 763 mmHg 79%
    22:00 +8°C° 0 mm 1 mps 763 mmHg 81%
    23:00 +8°C° 0 mm 1 mps 763 mmHg 83%

    24 November, Friday

    Time Temperature Precipitation Wind Pressure Humidity
    00:00 +8°C° 0 mm 1 mps 763 mmHg 84%
    01:00 +7°C° 0 mm 1 mps 763 mmHg 85%
    02:00 +7°C° 0 mm 1 mps 763 mmHg 86%
    03:00 +7°C° 0 mm 1 mps 763 mmHg 86%
    04:00 +7°C° 0 mm 1 mps 763 mmHg 86%
    05:00 +7°C° 0 mm 1 mps 763 mmHg 87%
    06:00 +7°C° 0 mm 1 mps 763 mmHg 87%
    07:00 +7°C° 0 mm 1 mps 763 mmHg 86%
    08:00 +7°C° 0 mm 1 mps 763 mmHg 86%
    09:00 +8°C° 0 mm 1 mps 764 mmHg 80%
    10:00 +10°C° 0 mm 1 mps 764 mmHg 73%
    11:00 +11°C° 0 mm 1 mps 764 mmHg 66%
    12:00 +12°C° 0 mm 1 mps 764 mmHg 64%
    13:00 +12°C° 0 mm 1 mps 764 mmHg 61%
    14:00 +13°C° 0 mm 1 mps 763 mmHg 58%
    15:00 +12°C° 0 mm 1 mps 764 mmHg 62%
    16:00 +11°C° 0 mm 1 mps 764 mmHg 66%
    17:00 +10°C° 0 mm 1 mps 764 mmHg 70%
    18:00 +10°C° 0 mm 1 mps 764 mmHg 73%
    19:00 +9°C° 0 mm 1 mps 764 mmHg 76%
    20:00 +9°C° 0 mm 1 mps 765 mmHg 79%
    21:00 +9°C° 0 mm 1 mps 765 mmHg 80%
    22:00 +8°C° 0 mm 1 mps 765 mmHg 82%
    23:00 +8°C° 0 mm 1 mps 765 mmHg 84%

    25 November, Saturday

    Time Temperature Precipitation Wind Pressure Humidity
    00:00 +8°C° 0 mm 1 mps 766 mmHg 85%
    01:00 +8°C° 0 mm 1 mps 766 mmHg 86%
    02:00 +7°C° 0 mm 1 mps 766 mmHg 87%
    03:00 +7°C° 0 mm 1 mps 766 mmHg 87%
    04:00 +7°C° 0 mm 1 mps 766 mmHg 87%
    05:00 +7°C° 0 mm 1 mps 766 mmHg 88%
    06:00 +7°C° 0 mm 1 mps 766 mmHg 88%
    07:00 +7°C° 0 mm 1 mps 766 mmHg 88%
    08:00 +7°C° 0 mm 1 mps 766 mmHg 88%
    09:00 +9°C° 0 mm 1 mps 766 mmHg 81%
    10:00 +9°C° 0 mm 2 mps 766 mmHg 73%
    11:00 +12°C° 0 mm 2 mps 766 mmHg 66%
    12:00 +13°C° 0 mm 2 mps 766 mmHg 62%
    13:00 +13°C° 0 mm 2 mps 765 mmHg 58%
    14:00 +14°C° 0 mm 2 mps 765 mmHg 55%
    15:00 +13°C° 0 mm 2 mps 765 mmHg 59%
    16:00 +12°C° 0 mm 2 mps 765 mmHg 64%
    17:00 +10°C° 0 mm 2 mps 765 mmHg 68%
    18:00 +10°C° 0 mm 2 mps 765 mmHg 72%
    19:00 +9°C° 0 mm 2 mps 765 mmHg 75%
    20:00 +9°C° 0 mm 3 mps 765 mmHg 78%
    21:00 +9°C° 0 mm 3 mps 765 mmHg 80%
    22:00 +8°C° 0 mm 3 mps 765 mmHg 82%
    23:00 +8°C° 0 mm 3 mps 765 mmHg 84%
    Show more